Regional Weather Roundup
Issued by NWS Cleveland, OH

Home | Current Version | Previous Version | Graphics & Text | Print | Product List | Glossary On
Versions: 1 2 3 4 5 6 7 8 9 10 11 12 13 14 15 16 17 18 19 20 21 22 23 24 25 26 27 28 29 30 31 32 33 34 35 36 37 38 39 40 41 42 43 44 45 46 47 48 49 50
000
ASUS41 KCLE 182310
RWRCLE
OHIO REGIONAL WEATHER ROUNDUP
NATIONAL WEATHER SERVICE CLEVELAND, OH
600 PM EST THU DEC 18 2014

NOTE: "FAIR" INDICATES FEW OR NO CLOUDS BELOW 12,000 FEET WITH NO
SIGNIFICANT WEATHER AND/OR OBSTRUCTIONS TO VISIBILITY.

OHZ001>008-015>018-024>027-034-035-043-044-190000-
   NORTHWEST OHIO

CITY           SKY/WX    TMP DP  RH WIND       PRES   REMARKS
DEFIANCE       CLOUDY    30  24  78 CALM      30.21S
FINDLAY        CLOUDY    30  24  78 W8        30.19S WCI  22
TOLEDO EXPRESS CLOUDY    30  25  80 W10       30.18F WCI  21
TOLEDO EXEC    CLOUDY    31  24  75 W7        30.19F WCI  24
LIMA           CLOUDY    31  23  72 W6        30.19S WCI  25
$$

OHZ009>014-019>023-028>033-038-089-190000-
   NORTHEAST OHIO

CITY           SKY/WX    TMP DP  RH WIND       PRES   REMARKS
CLE-HOPKINS    CLOUDY    30  24  78 SW9       30.20S WCI  22
CLE-LAKEFRONT  CLOUDY    32  25  75 SW12      30.17S WCI  23
CUY CO. ARPT   CLOUDY    32  28  86 W10       30.16S WCI  24
LORAIN-ELYRIA  CLOUDY    29  25  85 W6        30.18S WCI  23
ASHTABULA      CLOUDY    30  27  88 SW5       30.15R WCI  25
AKRON-CANTON   CLOUDY    29  22  75 W6        30.15F WCI  23
WOOSTER        CLOUDY    28  23  81 W6        30.17S WCI  22
MANSFIELD      CLOUDY    27  23  85 SW6       30.16S WCI  20
YOUNGSTOWN     FLURRIES  28  23  81 W9        30.14S WCI  19
$$

OHZ042-051>053-060>062-070>072-077>081-190000-
  SOUTHWEST OHIO

CITY           SKY/WX    TMP DP  RH WIND       PRES   REMARKS
CINC-COVINGTON CLOUDY    29  19  66 CALM      30.21S
CINC-LUNKEN    CLOUDY    30  20  66 CALM      30.24S
HAMILTON       CLOUDY    30  22  72 CALM      30.24S
DAYTON         CLOUDY    28  22  78 NW3       30.21S
WRIGHT-PAT AFB CLOUDY    28  21  74 W3        30.21R
DAYTON GENERAL CLOUDY    28  20  71 W3        30.20R
WILMINGTON     CLOUDY    27  19  72 CALM      30.19F
$$

OHZ036-037-039>041-045>050-054>059-063>069-073>076-082>088-190000-
  CENTRAL AND SOUTHEAST OHIO

CITY           SKY/WX    TMP DP  RH WIND       PRES   REMARKS
COLUMBUS       CLOUDY    28  20  71 W5        30.20F WCI  23
OSU AIRPORT    CLOUDY    28  21  75 W5        30.19F WCI  23
BOLTON FIELD   CLOUDY    27  23  86 CALM      30.20F
RICKENBACK AFB CLOUDY    28  22  76 NW3       30.20F
NEWARK         CLOUDY    29  21  72 W3        30.19F
MARION         CLOUDY    28  22  78 W5        30.18F WCI  23
LANCASTER      CLOUDY    28  22  78 W3        30.21F
ZANESVILLE     LGT SNOW  26  22  84 W3        30.20S VSB 1
NEW PHILLY     CLOUDY    29  22  75 W5        30.19F WCI  24
$$


USA.gov is the U.S. government's official web portal to all federal, state and local government web resources and services.